This demonstration page uses our WeatherBlox Daily Observations layout. Learn more.

Hourly Observations for October 17, 2015

Temp ( °F °C ) Dew Point ( °F °C ) Humidity (%) Winds ( mph kmh ) Pressure ( in mb ) Visibility ( mi km ) Precip ( " mm )
12:15 am 00:15 Clear 45 7 25 -4 46 46 SSE 7 11 30.39 1029 10 16.09344 0 0
12:35 am 00:35 Clear 43 6 25 -4 49 49 SSE 8 13 30.39 1029 10 16.09344 0 0
12:55 am 00:55 Clear 45 7 25 -4 46 46 SSE 9 15 30.39 1029 10 16.09344 0 0
1:15 am 01:15 Clear 43 6 25 -4 49 49 SE 8 13 30.39 1029 10 16.09344 0 0
1:35 am 01:35 Clear 43 6 25 -4 49 49 SSE 8 13 30.39 1029 10 16.09344 0 0
1:55 am 01:55 Clear 43 6 25 -4 49 49 SSE 9 15 30.39 1029 10 16.09344 0 0
2:15 am 02:15 Clear 43 6 25 -4 49 49 SSE 9 15 30.39 1029 10 16.09344 0 0
2:35 am 02:35 Clear 43 6 25 -4 49 49 SSE 9 15 30.36 1028 10 16.09344 0 0
2:55 am 02:55 Clear 45 7 25 -4 46 46 SSE 9 15 30.36 1028 10 16.09344 0 0
3:15 am 03:15 Clear 43 6 25 -4 49 49 SSE 9 15 30.36 1028 10 16.09344 0 0
3:35 am 03:35 Clear 43 6 25 -4 49 49 SSE 8 13 30.36 1028 10 16.09344 0 0
3:55 am 03:55 Clear 41 5 27 -3 57 57 SSE 8 13 30.39 1029 10 16.09344 0 0
4:15 am 04:15 Clear 41 5 27 -3 57 57 SSE 9 15 30.39 1029 10 16.09344 0 0
4:35 am 04:35 Clear 39 4 27 -3 61 61 SSE 6 9 30.39 1029 10 16.09344 0 0
4:55 am 04:55 Clear 39 4 27 -3 61 61 SSE 8 13 30.39 1029 10 16.09344 0 0
5:15 am 05:15 Clear 39 4 27 -3 61 61 SSE 7 11 30.39 1029 10 16.09344 0 0
5:35 am 05:35 Clear 39 4 27 -3 61 61 SE 7 11 30.39 1029 10 16.09344 0 0
5:55 am 05:55 Clear 37 3 27 -3 65 65 SSE 7 11 30.39 1029 10 16.09344 0 0
6:15 am 06:15 Clear 39 4 27 -3 61 61 SSE 8 13 30.39 1029 10 16.09344 0 0
6:35 am 06:35 Clear 37 3 27 -3 65 65 SE 7 11 30.39 1029 10 16.09344 0 0
6:55 am 06:55 Clear 37 3 27 -3 65 65 SSE 6 9 30.39 1029 10 16.09344 0 0
7:15 am 07:15 Clear 37 3 27 -3 65 65 SSE 7 11 30.39 1029 10 16.09344 0 0
7:35 am 07:35 Clear 37 3 27 -3 65 65 SSE 5 7 30.39 1029 10 16.09344 0 0
7:55 am 07:55 Sunny 39 4 28 -2 65 65 SE 8 13 30.39 1029 10 16.09344 0 0
8:15 am 08:15 Sunny 39 4 28 -2 65 65 SSE 8 13 30.39 1029 10 16.09344 0 0
8:35 am 08:35 Sunny 41 5 28 -2 61 61 SSE 8 13 30.39 1029 10 16.09344 0 0
8:55 am 08:55 Sunny 45 7 30 -1 57 57 SSE 8 13 30.39 1029 10 16.09344 0 0
9:15 am 09:15 Sunny 48 9 28 -2 46 46 SSE 13 20 30.39 1029 10 16.09344 0 0
9:35 am 09:35 Sunny 50 10 28 -2 43 43 SSE 15 24 30.36 1028 10 16.09344 0 0
9:55 am 09:55 Sunny 52 11 28 -2 41 41 S 15 24 30.36 1028 10 16.09344 0 0
10:15 am 10:15 Sunny 54 12 28 -2 38 38 S 16 26 30.36 1028 10 16.09344 0 0
10:35 am 10:35 Sunny 55 13 28 -2 36 36 S 17 28 30.33 1027 10 16.09344 0 0
10:55 am 10:55 Sunny 57 14 28 -2 33 33 SSE 16 26 30.33 1027 10 16.09344 0 0
11:15 am 11:15 Partly Cloudy 59 15 27 -3 29 29 S 20 31 30.33 1027 10 16.09344 0 0
11:35 am 11:35 Mostly Cloudy 59 15 28 -2 31 31 S 17 28 30.33 1027 10 16.09344 0 0
11:55 am 11:55 Cloudy 59 15 27 -3 29 29 S 21 33 30.33 1027 10 16.09344 0 0
12:15 pm 12:15 Partly Cloudy 59 15 27 -3 29 29 SSE 20 31 30.3 1026 10 16.09344 0 0
12:35 pm 12:35 Sunny 61 16 27 -3 27 27 S 18 30 30.27 1025 10 16.09344 0 0
12:55 pm 12:55 Partly Cloudy 61 16 27 -3 27 27 SSE 20 31 30.27 1025 10 16.09344 0 0
1:15 pm 13:15 Partly Cloudy 63 17 27 -3 25 25 S 16 26 30.27 1025 10 16.09344 0 0
1:35 pm 13:35 Sunny 63 17 27 -3 25 25 S 20 31 30.24 1024 10 16.09344 0 0
1:55 pm 13:55 Partly Cloudy 63 17 27 -3 25 25 SSE 20 31 30.24 1024 10 16.09344 0 0
2:15 pm 14:15 Partly Cloudy 63 17 25 -4 24 24 S 17 28 30.24 1024 10 16.09344 0 0
2:35 pm 14:35 Partly Cloudy 63 17 27 -3 25 25 S 18 30 30.24 1024 10 16.09344 0 0
2:55 pm 14:55 Sunny 63 17 27 -3 25 25 SSE 20 31 30.21 1023 10 16.09344 0 0
3:15 pm 15:15 Sunny 64 18 27 -3 24 24 SSE 16 26 30.21 1023 10 16.09344 0 0
3:35 pm 15:35 Sunny 63 17 27 -3 25 25 SSE 20 31 30.21 1023 10 16.09344 0 0
3:55 pm 15:55 Sunny 64 18 27 -3 24 24 SSE 16 26 30.21 1023 10 16.09344 0 0
4:15 pm 16:15 Partly Cloudy 63 17 27 -3 25 25 S 18 30 30.21 1023 10 16.09344 0 0
4:35 pm 16:35 Partly Cloudy 63 17 27 -3 25 25 SSE 18 30 30.21 1023 10 16.09344 0 0
4:55 pm 16:55 Partly Cloudy 63 17 27 -3 25 25 SSE 16 26 30.21 1023 10 16.09344 0 0
5:15 pm 17:15 Sunny 63 17 27 -3 25 25 SSE 20 31 30.21 1023 10 16.09344 0 0
5:35 pm 17:35 Sunny 61 16 27 -3 27 27 SSE 17 28 30.21 1023 10 16.09344 0 0
5:55 pm 17:55 Sunny 59 15 27 -3 29 29 SSE 17 28 30.21 1023 10 16.09344 0 0
6:15 pm 18:15 Sunny 59 15 27 -3 29 29 SSE 15 24 30.18 1022 10 16.09344 0 0
6:35 pm 18:35 Sunny 57 14 27 -3 31 31 SSE 10 17 30.21 1023 10 16.09344 0 0
6:55 pm 18:55 Clear 55 13 27 -3 33 33 SSE 12 19 30.21 1023 10 16.09344 0 0
7:15 pm 19:15 Clear 54 12 27 -3 35 35 SSE 10 17 30.21 1023 10 16.09344 0 0
7:35 pm 19:35 Clear 52 11 28 -2 41 41 SSE 8 13 30.27 1025 10 16.09344 0 0
7:55 pm 19:55 Clear 50 10 28 -2 43 43 SSE 8 13 30.27 1025 10 16.09344 0 0
8:15 pm 20:15 Clear 48 9 28 -2 46 46 SSE 8 13 30.27 1025 10 16.09344 0 0
8:35 pm 20:35 Clear 46 8 28 -2 50 50 SE 7 11 30.3 1026 10 16.09344 0 0
8:55 pm 20:55 Clear 46 8 28 -2 50 50 SE 7 11 30.3 1026 10 16.09344 0 0
9:15 pm 21:15 Clear 46 8 30 -1 53 53 SE 8 13 30.24 1024 10 16.09344 0 0
9:35 pm 21:35 Clear 46 8 30 -1 53 53 SE 8 13 30.24 1024 10 16.09344 0 0
9:55 pm 21:55 Clear 46 8 30 -1 53 53 SSE 9 15 30.24 1024 10 16.09344 0 0
10:15 pm 22:15 Clear 45 7 30 -1 57 57 SSE 9 15 30.27 1025 10 16.09344 0 0
10:35 pm 22:35 Clear 46 8 30 -1 53 53 SSE 10 17 30.24 1024 10 16.09344 0 0
10:55 pm 22:55 Clear 46 8 30 -1 53 53 SSE 12 19 30.24 1024 10 16.09344 0 0
11:15 pm 23:15 Clear 45 7 30 -1 57 57 SSE 12 19 30.27 1025 10 16.09344 0 0
11:35 pm 23:35 Clear 45 7 30 -1 57 57 SSE 10 17 30.27 1025 10 16.09344 0 0
11:55 pm 23:55 Clear 46 8 30 -1 53 53 SSE 12 19 30.24 1024 10 16.09344 0 0

Powered by AerisWeather